SCP
-0 -0 -0 -0 -0 -0 -0 -0 -0 -0 -0 -0 -0 -0 -0 0 0 0 0 0 0 0 0 0 0 0 0 0 0 -0 -0 0
-0 -0 0 -0 -0 -0 -0 -0 -0 -0 -0 -0 -0 0 0 0 0 0 0 0 0 0 0 0 0 0 0 0 0 -0 -0 0
-0 -0 0 -0 -0 -0 -0 -0 -0 -0 0 0 0 0 0 0 0 0 0 0 0 0 0 0 0 0 0 0 0 0 -0 -0
-0 -0 0 0 -0 -0 0 0 0 0 0 0 0 0 0 0 0 0 0 0 0 0 0 0 0 0 0 0 0 0 0 -0
-0 -0 -0 0 0 0 0 0 0 0 0 0 0 0 0 0 0 0 0 0 0 0 0 0 0 0 0 0 0 0 0 0
0 -0 -0 -0 -0 0 0 0 0 0 0 0 0 0 0 0 0 0 0 0 0 0 0 0 0 0 0 0 0 0 0 0
-0 -0 0 0 -0 -0 0 -0 -0 -0 -0 -0 0 0 0 0 0 0 0 0 0 0 0 0 0 0 0 0 0 0 0 0
-0 -0 -0 -0 -0 -0 -0 -0 -0 0 -0 -0 0 0 0 0 0 0 0 0 0 0 0 0 0 0 0 0 0 0 0 0
-0 -0 0 0 0 0 0 -0 -0 -0 -0 0 0 0 0 0 0 0 0 0 0 0 0 0 0 0 0 0 0 0 0 0
-0 0 0 0 0 0 0 0 0 0 0 0 0 0 0 0 0 0 0 0 0 0 0 0 0 0 -0 -0 -0 -0 0 0
0 0 0 0 0 0 0 0 0 0 0 0 0 0 0 0 0 0 0 0 0 0 0 0 -0 -0 0 0 0 0 0 0
0 0 0 0 0 0 0 0 0 0 0 0 0 0 0 0 0 0 0 0 0 0 0 0 0 0 0 0 0 0 0 0
0 0 0 0 0 0 0 0 0 0 0 0 0 0 0 0 0 0 0 0 0 0 0 0 0 0 -0 -0 -0 -0 -0 -0
0 0 0 0 0 0 0 0 0 0 0 0 0 0 0 0 0 0 0 0 0 0 0 0 0 0 -0 -0 -0 -0 -0 -0
0 0 0 0 0 0 0 0 0 0 0 0 0 0 0 0 0 0 0 0 0 0 0 0 0 0 0 0 0 0 0 0
0 0 0 0 0 0 0 0 0 0 0 0 0 0 0 0 0 0 0 0 0 0 0 0 0 0 0 0 0 -0 0 0
0 0 0 0 0 0 0 0 0 0 0 0 0 0 0 0 0 0 0 0 0 0 0 0 0 0 0 0 0 0 0 0
0 0 0 0 0 0 0 0 0 0 0 0 0 0 0 0 0 0 0 0 0 0 0 0 0 0 0 0 0 0 0 0
0 0 0 0 0 0 0 0 0 0 0 0 0 0 0 0 0 0 0 0 0 0 0 0 0 0 0 0 0 0 0 0
Wind_Speed_500mb
45 41 39 36 33 31 30 28 25 23 21 18 15 13 11 8 7 5 4 3 2 2 4 4 5 6 8 8 7 7 8 12
42 40 39 35 32 29 27 25 23 21 18 15 13 12 9 8 7 7 7 6 6 6 7 9 10 10 11 11 12 9 6 8
35 38 37 34 31 28 26 24 22 19 16 13 10 8 6 5 6 7 9 10 11 11 12 13 14 16 17 17 16 15 14 10
26 30 34 32 30 27 25 22 20 18 15 13 10 8 5 2 2 5 7 10 12 15 17 19 20 21 23 24 25 23 20 17
27 26 24 25 22 21 21 20 18 16 14 12 10 8 6 7 11 4 5 9 12 18 22 25 25 26 28 30 31 29 27 25
41 36 38 32 27 18 16 15 15 15 14 12 10 7 9 7 4 5 10 14 23 23 23 20 21 20 24 25 25 22 20 18
50 47 40 36 29 33 21 19 21 21 18 19 14 15 12 12 10 14 18 17 23 23 28 23 16 19 22 23 25 24 20 19
53 46 40 36 33 29 27 26 21 20 17 9 10 10 11 5 2 5 9 12 12 21 21 23 24 24 27 25 23 24 26 28
67 54 48 38 34 33 29 26 22 16 9 2 4 11 15 22 21 18 19 13 6 10 11 19 15 22 24 30 31 30 22 23
72 68 57 49 52 43 41 35 29 23 15 14 15 10 16 19 15 19 23 28 30 30 29 27 24 27 28 31 36 45 40 35
82 74 65 59 58 47 34 33 28 26 26 23 12 10 8 6 1 5 11 13 19 26 30 33 37 41 43 41 40 33 22 26
66 59 54 47 52 36 35 34 29 31 30 23 13 9 5 2 6 10 12 15 19 22 26 28 26 24 28 31 34 34 29 23
52 50 40 31 38 39 33 32 34 34 28 22 16 10 5 8 14 17 19 22 22 23 25 24 23 28 32 36 39 38 41 43
49 48 43 38 38 39 40 37 40 38 30 21 13 6 2 11 16 18 20 23 23 23 23 25 29 35 40 42 44 45 41 43
45 40 36 43 37 40 45 41 40 37 28 21 15 4 2 10 15 20 23 23 25 25 26 30 33 34 39 42 44 45 44 40
54 49 49 53 48 47 51 48 43 36 26 21 13 5 9 11 16 22 23 25 27 27 29 30 32 34 35 36 41 44 41 34
68 57 54 58 52 46 48 46 39 30 23 19 13 12 14 11 17 21 25 27 27 25 26 29 32 35 34 34 38 44 30 38
78 71 64 65 58 48 50 50 41 33 34 26 22 22 18 15 23 26 27 29 29 29 30 30 29 28 34 30 25 18 16 13
83 76 65 66 64 55 56 58 50 48 45 34 31 27 20 19 25 26 30 33 36 38 37 36 34 32 35 39 34 25 28 38
Wind_Direction_500mb
138 135 132 134 139 143 147 148 149 150 153 157 159 164 171 176 182 189 194 190 201 228 233 253 289 318 336 355 30 45 12 24
137 137 133 134 135 137 141 145 150 155 162 169 178 188 202 217 228 239 248 251 257 268 276 277 279 288 297 310 321 332 351 350
140 143 141 138 137 137 137 137 139 144 149 156 166 179 198 227 253 266 268 271 273 277 280 286 290 294 298 302 305 313 319 322
137 146 145 143 143 144 143 140 138 136 132 130 130 124 115 104 19 336 309 292 288 288 289 289 292 298 303 308 311 315 318 324
130 137 145 138 137 143 144 141 139 137 134 132 126 124 116 98 77 50 17 340 333 323 314 305 302 307 313 314 313 312 312 322
146 145 146 136 125 136 139 145 145 140 131 124 118 116 101 132 87 7 359 346 337 336 326 317 325 330 331 345 336 329 317 338
159 153 141 130 134 127 107 119 116 124 123 103 97 74 57 36 36 343 342 3 348 341 333 333 336 323 320 327 334 331 345 321
162 152 135 140 123 132 105 107 100 110 99 85 144 149 141 188 173 286 306 317 305 329 348 338 319 315 316 315 311 310 313 308
156 146 145 152 140 135 130 131 133 119 119 150 158 217 190 189 181 219 234 242 254 279 292 284 280 297 283 292 290 289 293 287
153 155 158 156 155 153 144 151 148 160 175 204 238 205 194 215 231 242 251 245 246 250 263 265 270 272 274 277 279 272 273 267
154 162 162 163 168 179 186 192 195 191 193 218 211 163 172 143 323 302 285 280 265 263 268 272 273 272 274 278 279 283 298 304
164 171 169 175 185 189 192 186 193 189 203 205 180 158 138 57 28 2 340 309 309 310 306 303 296 285 280 275 272 271 274 286
179 181 182 202 193 187 190 188 175 176 189 190 176 160 101 9 18 360 348 336 334 327 321 315 302 297 295 296 294 287 271 266
194 195 206 208 199 188 179 181 177 185 186 185 192 141 27 1 7 356 346 339 336 332 326 319 317 313 310 307 302 297 289 276
202 203 216 208 200 185 182 184 177 186 186 192 198 175 309 348 356 355 349 342 337 334 333 328 322 317 315 313 310 309 306 303
195 199 202 200 205 194 187 187 182 187 196 201 218 243 281 323 344 351 350 347 342 335 333 329 324 325 327 328 321 312 312 316
195 201 205 205 210 199 192 192 190 198 196 218 231 257 270 303 330 343 348 352 349 342 334 328 329 328 329 331 326 326 335 342
195 200 206 208 211 202 193 195 190 192 200 216 232 250 261 302 323 340 339 345 351 348 340 333 325 319 320 326 327 321 335 305
199 201 206 209 211 206 198 203 204 205 209 219 227 235 270 306 315 314 329 334 346 345 338 329 323 317 309 312 312 299 264 281
Wind_Speed_850mb
45 41 39 36 33 31 30 28 25 23 21 18 15 13 11 8 7 5 4 3 2 2 4 4 5 6 8 8 7 7 8 12
42 40 39 35 32 29 27 25 23 21 18 15 13 12 9 8 7 7 7 6 6 6 7 9 10 10 11 11 12 9 6 8
35 38 37 34 31 28 26 24 22 19 16 13 10 8 6 5 6 7 9 10 11 11 12 13 14 16 17 17 16 15 14 10
26 30 34 32 30 27 25 22 20 18 15 13 10 8 5 2 2 5 7 10 12 15 17 19 20 21 23 24 25 23 20 17
27 26 24 25 22 21 21 20 18 16 14 12 10 8 6 7 11 4 5 9 12 18 22 25 25 26 28 30 31 29 27 25
41 36 38 32 27 18 16 15 15 15 14 12 10 7 9 7 4 5 10 14 23 23 23 20 21 20 24 25 25 22 20 18
50 47 40 36 29 33 21 19 21 21 18 19 14 15 12 12 10 14 18 17 23 23 28 23 16 19 22 23 25 24 20 19
53 46 40 36 33 29 27 26 21 20 17 9 10 10 11 5 2 5 9 12 12 21 21 23 24 24 27 25 23 24 26 28
67 54 48 38 34 33 29 26 22 16 9 2 4 11 15 22 21 18 19 13 6 10 11 19 15 22 24 30 31 30 22 23
72 68 57 49 52 43 41 35 29 23 15 14 15 10 16 19 15 19 23 28 30 30 29 27 24 27 28 31 36 45 40 35
82 74 65 59 58 47 34 33 28 26 26 23 12 10 8 6 1 5 11 13 19 26 30 33 37 41 43 41 40 33 22 26
66 59 54 47 52 36 35 34 29 31 30 23 13 9 5 2 6 10 12 15 19 22 26 28 26 24 28 31 34 34 29 23
52 50 40 31 38 39 33 32 34 34 28 22 16 10 5 8 14 17 19 22 22 23 25 24 23 28 32 36 39 38 41 43
49 48 43 38 38 39 40 37 40 38 30 21 13 6 2 11 16 18 20 23 23 23 23 25 29 35 40 42 44 45 41 43
45 40 36 43 37 40 45 41 40 37 28 21 15 4 2 10 15 20 23 23 25 25 26 30 33 34 39 42 44 45 44 40
54 49 49 53 48 47 51 48 43 36 26 21 13 5 9 11 16 22 23 25 27 27 29 30 32 34 35 36 41 44 41 34
68 57 54 58 52 46 48 46 39 30 23 19 13 12 14 11 17 21 25 27 27 25 26 29 32 35 34 34 38 44 30 38
78 71 64 65 58 48 50 50 41 33 34 26 22 22 18 15 23 26 27 29 29 29 30 30 29 28 34 30 25 18 16 13
83 76 65 66 64 55 56 58 50 48 45 34 31 27 20 19 25 26 30 33 36 38 37 36 34 32 35 39 34 25 28 38
Wind_Direction_850mb
138 135 132 134 139 143 147 148 149 150 153 157 159 164 171 176 182 189 194 190 201 228 233 253 289 318 336 355 30 45 12 24
137 137 133 134 135 137 141 145 150 155 162 169 178 188 202 217 228 239 248 251 257 268 276 277 279 288 297 310 321 332 351 350
140 143 141 138 137 137 137 137 139 144 149 156 166 179 198 227 253 266 268 271 273 277 280 286 290 294 298 302 305 313 319 322
137 146 145 143 143 144 143 140 138 136 132 130 130 124 115 104 19 336 309 292 288 288 289 289 292 298 303 308 311 315 318 324
130 137 145 138 137 143 144 141 139 137 134 132 126 124 116 98 77 50 17 340 333 323 314 305 302 307 313 314 313 312 312 322
146 145 146 136 125 136 139 145 145 140 131 124 118 116 101 132 87 7 359 346 337 336 326 317 325 330 331 345 336 329 317 338
159 153 141 130 134 127 107 119 116 124 123 103 97 74 57 36 36 343 342 3 348 341 333 333 336 323 320 327 334 331 345 321
162 152 135 140 123 132 105 107 100 110 99 85 144 149 141 188 173 286 306 317 305 329 348 338 319 315 316 315 311 310 313 308
156 146 145 152 140 135 130 131 133 119 119 150 158 217 190 189 181 219 234 242 254 279 292 284 280 297 283 292 290 289 293 287
153 155 158 156 155 153 144 151 148 160 175 204 238 205 194 215 231 242 251 245 246 250 263 265 270 272 274 277 279 272 273 267
154 162 162 163 168 179 186 192 195 191 193 218 211 163 172 143 323 302 285 280 265 263 268 272 273 272 274 278 279 283 298 304
164 171 169 175 185 189 192 186 193 189 203 205 180 158 138 57 28 2 340 309 309 310 306 303 296 285 280 275 272 271 274 286
179 181 182 202 193 187 190 188 175 176 189 190 176 160 101 9 18 360 348 336 334 327 321 315 302 297 295 296 294 287 271 266
194 195 206 208 199 188 179 181 177 185 186 185 192 141 27 1 7 356 346 339 336 332 326 319 317 313 310 307 302 297 289 276
202 203 216 208 200 185 182 184 177 186 186 192 198 175 309 348 356 355 349 342 337 334 333 328 322 317 315 313 310 309 306 303
195 199 202 200 205 194 187 187 182 187 196 201 218 243 281 323 344 351 350 347 342 335 333 329 324 325 327 328 321 312 312 316
195 201 205 205 210 199 192 192 190 198 196 218 231 257 270 303 330 343 348 352 349 342 334 328 329 328 329 331 326 326 335 342
195 200 206 208 211 202 193 195 190 192 200 216 232 250 261 302 323 340 339 345 351 348 340 333 325 319 320 326 327 321 335 305
199 201 206 209 211 206 198 203 204 205 209 219 227 235 270 306 315 314 329 334 346 345 338 329 323 317 309 312 312 299 264 281